Theta_e
309 309 309 309 309 309 309 309 309 310 310 310 311 311 312 312 313 313 315 315 314 313 313 312 313 314 317 317 315 316 311 312 315 316 317 317 316 318 317 317 316 315 316 316 313
310 309 309 309 309 309 309 309 309 310 310 310 311 312 312 313 314 316 315 314 314 313 312 314 315 316 317 318 318 315 311 315 314 314 315 317 317 317 316 316 314 313 313 313 313
310 310 310 310 309 309 309 309 309 309 310 310 311 312 312 313 318 317 312 311 312 312 312 314 314 316 316 317 318 317 313 314 314 316 317 317 317 317 316 314 315 315 314 313 313
310 310 310 310 310 309 309 309 309 309 310 310 311 312 312 313 318 317 317 313 311 311 311 315 316 317 317 317 318 315 316 315 317 316 316 317 317 316 316 316 315 316 315 314 313
309 309 310 310 310 310 309 309 309 309 309 310 311 312 312 315 318 319 318 318 312 311 313 315 316 317 317 316 316 315 316 317 316 316 315 316 316 315 315 315 315 314 314 313 312
309 309 310 310 310 310 309 309 308 309 309 310 311 311 313 316 316 318 317 317 317 312 312 313 316 316 317 316 315 316 316 316 316 317 316 315 315 316 315 315 314 313 312 312 311
308 310 310 310 310 309 309 308 308 308 309 310 311 311 312 313 315 317 317 317 317 316 314 313 314 316 316 316 316 315 314 313 315 315 315 316 313 313 315 314 314 313 311 311 311
309 309 308 308 308 308 308 308 308 309 309 310 311 312 312 315 316 317 318 317 317 316 314 315 315 316 316 316 315 315 314 315 316 314 315 315 315 314 315 314 313 312 311 310 310
309 308 308 308 308 308 309 309 309 310 310 311 312 314 314 316 318 317 318 317 316 316 315 315 314 315 315 312 312 314 315 315 316 314 312 312 313 312 312 312 312 311 311 310 310
317 316 316 315 315 315 314 314 313 312 312 312 313 315 314 316 317 318 317 316 316 315 314 313 314 311 311 310 314 315 315 315 317 314 312 311 311 311 312 312 312 311 311 310 310
324 322 320 319 318 317 316 316 318 319 316 313 314 315 317 315 315 316 316 315 314 314 312 313 311 312 313 311 313 315 315 315 314 314 313 311 311 311 312 311 310 311 311 311 311
323 323 323 323 322 322 319 316 319 319 318 318 318 317 318 318 314 315 315 315 314 313 313 313 313 313 313 312 313 313 314 314 313 313 312 312 312 311 311 310 311 312 311 311 310
324 323 323 322 322 322 322 321 317 317 317 317 317 318 318 318 316 315 315 314 313 313 313 314 315 314 314 314 315 314 315 314 315 314 311 311 312 311 311 312 312 312 312 311 311
319 321 323 322 320 320 321 321 320 316 316 316 318 319 318 318 315 317 315 315 313 314 314 313 314 315 314 315 314 315 313 315 315 315 315 311 316 313 312 311 309 311 310 311 310
320 321 321 322 321 321 321 321 321 316 324 318 317 318 317 318 315 312 314 314 312 312 314 315 314 314 315 314 314 315 314 314 314 313 313 314 313 314 313 314 314 310 310 311 310
319 319 321 321 320 321 321 320 317 319 322 318 314 315 315 316 311 310 312 312 312 313 312 312 313 313 313 311 313 311 313 313 312 312 315 313 314 316 316 315 315 311 309 310 308
313 316 317 318 319 320 321 317 315 318 318 317 316 314 315 315 311 310 310 310 313 314 314 314 312 313 312 312 312 313 314 315 316 315 317 313 314 317 315 314 312 309 308 308 307
307 309 312 317 318 319 319 317 316 316 316 315 316 315 317 315 313 311 310 310 309 312 314 315 317 313 311 312 313 312 313 315 316 318 317 311 315 315 312 312 312 311 314 309 306
305 306 307 314 316 318 318 318 316 316 315 316 316 317 317 316 314 311 309 310 311 310 315 315 316 311 310 312 313 312 314 314 316 302 310 315 314 312 309 308 308 308 307 305 305
303 304 307 308 308 316 318 317 314 315 317 316 318 316 317 317 316 313 311 311 313 311 312 315 318 310 309 312 311 312 311 314 314 317 317 317 316 319 313 310 306 304 304 303 303
303 306 306 307 310 310 310 310 315 315 315 318 320 319 317 317 315 314 315 314 312 312 312 313 317 312 310 311 313 311 313 314 315 314 316 315 320 312 314 312 307 304 305 304 303
302 306 306 311 312 311 311 311 312 315 316 316 317 318 319 317 316 314 314 315 314 312 312 312 316 310 311 309 309 312 314 314 319 317 314 314 321 309 309 308 308 306 305 305 304
303 305 308 311 312 311 310 311 311 313 315 317 318 317 316 319 321 319 317 316 315 313 313 314 315 314 317 313 309 311 311 314 316 314 318 321 321 306 306 308 307 306 305 304 303
302 305 306 310 311 310 311 312 312 312 313 315 316 317 318 318 318 320 319 316 314 316 315 315 314 314 321 318 312 311 310 312 315 319 317 319 319 313 309 308 307 306 306 304 303
301 304 307 308 309 311 311 313 313 313 312 312 313 315 316 320 318 318 318 316 312 311 315 316 318 316 316 315 314 310 310 312 313 315 318 318 317 316 314 310 308 310 306 304 303
301 301 304 305 309 309 310 312 313 313 313 314 313 313 314 316 317 316 317 317 317 309 313 313 316 314 317 314 314 315 315 312 312 313 314 315 316 312 313 314 310 309 307 304 304
300 301 303 303 304 308 310 310 310 311 312 312 314 314 314 314 313 314 311 310 309 313 314 312 312 313 317 312 313 315 315 314 315 313 314 314 314 312 311 310 308 308 307 306 305
Wind_Speed
5 5 4 4 3 3 2 2 1 1 2 3 4 4 5 5 6 4 1 2 3 2 1 3 4 6 7 6 5 3 4 2 4 3 3 7 3 3 6 8 4 5 8 11 13
5 5 4 3 3 3 2 2 2 2 2 3 4 5 6 6 5 2 3 3 2 1 3 6 4 5 3 3 3 4 3 2 1 3 2 6 5 7 4 8 4 9 11 11 12
7 7 5 5 4 4 4 4 4 4 4 4 5 5 6 6 2 3 5 5 3 2 3 6 6 4 3 2 2 2 3 1 4 4 6 2 4 4 4 3 6 12 13 11 12
10 9 8 7 7 6 6 6 5 5 5 6 6 5 6 4 3 3 5 7 6 6 9 9 4 3 2 1 2 2 4 1 1 2 2 1 2 2 7 5 9 12 12 12 12
13 12 11 10 9 8 7 7 7 7 6 6 7 6 4 1 3 3 3 1 2 7 8 6 5 2 1 2 2 3 3 1 3 4 4 4 5 4 6 11 12 14 13 13 12
15 14 13 12 11 10 9 8 7 8 8 8 7 6 4 3 4 4 4 4 5 6 5 5 3 2 1 1 2 1 3 6 6 10 6 4 5 2 7 17 15 14 15 14 14
17 16 15 14 13 12 10 9 8 8 8 8 8 7 7 9 7 5 5 4 5 8 7 7 5 3 1 1 1 2 4 6 13 12 5 7 7 10 16 19 17 15 16 16 16
18 16 15 15 14 13 11 10 9 8 8 8 8 8 6 8 10 12 11 11 9 8 8 6 5 4 2 1 2 1 1 2 4 13 6 7 9 7 17 24 20 18 18 18 17
16 15 15 14 14 13 12 11 10 9 9 8 7 5 6 8 13 13 12 10 9 9 8 6 6 4 4 4 4 2 4 6 6 10 5 5 7 2 17 18 18 20 21 21 20
14 14 13 13 13 13 12 10 10 10 10 9 11 5 11 7 8 8 11 9 7 8 6 6 4 3 1 4 5 6 5 5 5 5 2 6 11 5 17 19 23 24 25 25 25
16 15 13 12 11 9 8 7 5 5 12 11 6 5 4 12 7 10 14 13 8 6 5 6 4 8 15 10 6 3 4 5 5 4 6 9 10 10 24 24 24 28 32 33 31
18 19 16 14 12 11 7 4 4 4 10 16 20 18 8 11 8 12 18 13 9 6 7 2 9 14 7 9 9 8 8 12 7 6 6 8 14 10 10 18 32 38 41 38 33
21 19 18 16 15 15 11 9 8 6 6 9 23 24 27 28 16 21 26 14 6 8 11 9 7 11 9 6 6 6 8 6 9 1 4 5 10 8 10 28 27 40 39 41 43
27 24 24 18 15 17 16 8 10 1 3 6 9 6 17 19 9 27 30 15 8 13 6 9 10 5 6 7 10 9 6 6 7 2 6 5 10 6 6 10 10 33 37 39 42
30 32 25 28 16 16 11 8 10 7 4 1 2 4 16 18 6 8 30 13 7 9 7 8 8 10 11 8 9 6 2 4 3 3 3 4 7 5 9 13 20 20 32 41 43
19 15 18 24 18 15 16 11 22 4 11 3 3 3 7 6 2 5 10 5 4 2 3 5 1 5 7 3 7 7 5 6 5 2 6 8 9 7 11 17 12 8 28 37 40
18 20 15 16 23 22 17 18 3 5 3 5 4 5 3 5 3 3 6 7 8 5 11 0 6 3 5 5 3 5 6 2 3 1 9 5 10 21 6 5 9 11 28 36 38
16 19 20 18 13 25 22 3 5 7 7 4 5 6 7 6 3 5 6 5 7 3 3 7 5 15 8 11 8 8 9 6 7 5 5 3 8 6 9 14 18 16 27 40 41
16 16 22 28 23 24 21 5 9 6 6 8 4 4 5 4 6 5 7 5 9 13 9 7 6 3 1 4 13 5 10 6 2 2 2 6 9 10 5 10 4 11 25 35 43
15 14 25 20 19 30 7 10 6 6 2 3 12 9 10 9 8 8 9 7 7 17 9 4 4 3 1 5 3 6 5 3 1 3 6 5 8 12 6 11 8 8 19 27 35
11 7 10 12 18 13 3 6 6 15 9 4 1 6 8 8 10 7 7 4 11 10 24 4 3 1 2 6 12 3 4 4 5 5 5 3 9 6 8 9 9 12 27 34 39
10 4 9 18 13 6 8 7 8 4 19 8 2 5 3 8 8 9 11 9 15 11 11 8 3 4 10 4 3 2 10 9 7 6 5 2 18 2 1 5 12 17 27 32 37
8 14 10 27 8 11 6 12 13 8 11 5 10 8 6 5 5 15 5 7 11 11 11 8 2 1 4 1 3 7 7 18 11 3 13 6 15 2 4 5 4 14 22 29 33
7 3 16 24 20 12 18 13 14 19 13 9 5 4 9 10 6 5 7 4 3 10 5 10 6 8 12 4 5 7 9 14 16 9 7 23 26 12 3 3 3 10 20 30 35
16 7 8 6 15 15 11 4 16 10 17 25 8 21 18 7 18 21 20 10 3 5 13 10 10 13 21 8 1 5 7 18 20 29 14 24 20 30 14 9 17 19 20 28 34
12 7 13 11 6 18 17 8 15 17 11 8 14 16 22 23 15 2 18 10 11 3 6 4 6 9 22 15 13 16 14 18 21 25 21 26 30 6 15 23 17 25 30 35 38
26 22 9 7 6 8 10 22 24 16 8 24 12 14 10 17 16 22 4 4 2 4 15 9 6 6 15 8 11 10 33 20 21 21 24 23 35 19 17 15 18 23 31 35 38
Wind_Direction
186 187 184 186 182 187 191 206 232 265 308 328 340 344 340 345 338 329 330 323 316 311 12 69 55 71 73 45 44 42 60 351 313 24 146 156 98 105 107 132 103 98 147 155 160
214 218 221 225 229 235 239 263 278 286 295 311 325 336 338 347 343 34 357 335 307 235 146 119 74 84 73 47 35 68 93 265 80 342 128 171 127 166 146 142 107 116 135 153 165
229 234 236 249 253 259 263 266 278 290 300 310 318 328 337 349 85 47 45 48 59 132 146 136 112 76 62 51 59 56 160 304 14 31 50 128 120 145 156 165 192 194 175 177 179
238 243 246 249 255 263 271 276 278 285 296 303 312 324 333 342 148 91 57 49 68 110 128 112 78 36 69 35 117 53 255 123 290 328 327 107 147 165 211 208 177 182 180 188 190
241 244 248 252 256 259 263 272 282 287 291 298 307 318 330 330 243 232 294 296 121 138 139 119 76 39 46 50 118 143 317 241 246 257 255 266 240 215 223 203 193 190 195 205 210
238 244 248 251 254 258 264 267 275 285 293 297 303 308 315 262 239 248 261 235 209 193 184 164 133 107 321 270 148 188 301 284 252 234 227 216 253 228 238 206 208 210 209 211 215
241 240 247 250 253 257 260 267 274 280 290 295 299 301 283 264 243 234 240 236 220 211 197 202 209 192 86 309 358 319 321 305 245 217 218 206 287 231 235 201 208 215 222 220 219
242 242 243 247 249 253 256 259 267 277 286 290 295 297 266 248 250 248 247 240 228 212 211 221 211 181 178 157 326 316 66 301 276 168 191 143 270 287 221 198 207 216 221 226 218
244 245 246 248 249 251 255 259 262 267 271 278 281 266 262 235 236 241 241 230 217 212 205 203 173 151 145 102 7 329 247 225 303 170 132 163 259 238 181 201 212 216 218 220 218
243 245 248 252 253 257 260 261 266 268 260 260 240 266 231 215 210 218 195 203 187 181 158 161 157 108 57 116 217 211 227 256 235 230 186 192 252 232 205 214 225 222 220 219 224
247 243 242 248 256 257 262 269 275 257 227 213 194 184 168 207 200 204 184 173 155 166 159 186 132 201 206 194 195 217 222 241 258 233 160 226 240 236 224 224 229 226 222 220 225
252 246 246 247 251 255 253 227 226 284 295 248 242 233 211 208 182 191 176 173 171 191 137 111 227 224 178 201 212 238 249 264 297 197 179 253 251 250 217 224 225 225 226 221 211
244 242 246 243 240 243 244 240 243 288 270 263 238 232 226 222 210 201 184 191 181 174 193 185 212 214 193 214 206 217 213 234 231 198 263 309 270 235 244 235 236 235 235 225 214
256 253 235 223 226 235 238 226 232 54 281 253 209 217 199 194 237 224 209 193 196 199 187 234 228 150 162 209 190 232 215 219 242 262 255 148 284 226 230 251 223 235 221 219 211
250 241 247 210 211 210 231 196 185 145 272 165 117 168 172 166 152 174 195 202 180 180 155 229 179 210 222 212 181 223 136 182 212 224 331 276 299 261 214 247 249 235 221 212 209
242 203 203 218 216 222 209 173 153 138 230 192 118 129 123 199 72 114 171 181 152 151 290 211 145 152 203 76 169 144 76 41 42 60 266 192 210 244 227 236 249 218 211 202 200
256 250 226 203 233 219 196 156 99 194 290 186 167 175 167 159 132 143 154 185 178 159 227 110 210 182 159 105 44 133 111 292 319 299 249 205 219 251 286 208 229 212 201 196 196
274 271 256 227 212 213 181 131 195 201 238 155 135 131 174 145 177 166 136 193 252 231 110 177 275 179 191 185 177 191 168 166 217 213 281 355 243 254 230 250 262 254 220 202 198
268 262 262 242 232 200 170 209 195 182 194 147 107 150 205 172 146 142 198 211 196 192 187 184 260 62 105 153 160 197 211 176 22 114 8 221 277 283 239 259 261 201 187 188 195
273 267 259 252 236 217 216 217 235 219 7 160 195 177 184 176 158 173 181 207 207 194 192 240 250 34 246 95 33 154 163 119 95 205 241 270 265 242 236 251 231 209 183 186 191
274 265 267 235 198 214 230 210 243 252 264 250 248 205 200 177 175 190 209 257 200 204 192 185 167 262 109 198 175 145 197 198 144 166 194 281 259 211 231 244 214 203 194 191 195
253 246 223 185 182 202 208 189 205 232 234 234 246 259 219 185 186 191 205 214 199 137 178 204 146 187 206 242 250 305 196 177 184 214 233 151 266 175 139 273 218 207 198 200 204
237 240 234 193 202 210 207 219 220 202 203 208 207 214 192 239 205 214 194 229 170 157 175 178 212 346 309 31 354 219 210 207 220 89 220 181 256 344 28 14 244 209 199 197 201
223 246 214 219 226 207 220 220 215 215 233 227 238 271 212 227 189 208 220 249 213 197 232 141 168 211 226 166 132 186 203 200 203 213 185 227 265 233 355 308 271 228 210 202 204
206 239 219 193 227 229 219 215 216 213 206 205 238 228 240 231 226 234 235 238 196 192 205 172 218 218 248 232 129 200 207 212 210 227 208 249 235 258 252 245 240 247 207 205 206
203 208 235 251 250 213 224 229 220 220 203 192 220 223 231 235 219 224 233 212 207 126 160 179 222 205 249 240 245 252 247 218 221 236 239 254 258 138 238 250 230 226 210 203 209
227 220 231 250 224 233 220 229 231 219 214 222 228 231 216 233 255 266 217 122 57 212 190 181 179 195 245 185 213 241 237 235 228 227 225 232 244 248 251 235 233 228 213 212 219